Weather History for Beckley, WV

Change the Weather History Date:

Saturday, August 10, 2013

  Actual Average Record
Temperature  
Mean Temperature 75 °F 70 °F  
Max Temperature 81 °F 80 °F 98 °F (1926)
Min Temperature 68 °F 61 °F 43 °F (1940)
Degree Days  
Heating Degree Days 0 0  
Month to date heating degree days 1 0  
Since 1 June heating degree days 13 47  
Since 1 July heating degree days 6 8  
Cooling Degree Days 10 6  
Month to date cooling degree days 54 60  
Year to date cooling degree days 451 393  
Since 1 June cooling degree days 384 352  
Growing Degree Days 24 (Base 50)    
Moisture  
Dew Point 67 °F    
Average Humidity 80    
Maximum Humidity 97    
Minimum Humidity 62    
Precipitation  
Precipitation 1.03 in 0.12 in 1.50 in (1952)
Month to date precipitation 2.48 1.38  
Year to date precipitation 27.30 27.57  
Snow  
Snow 0.00 in - - ()
Month to date snowfall 0.0  
Since 1 September snowfall 72.0  
Snow Depth 0.00 in    
Sea Level Pressure  
Sea Level Pressure 30.11 in    
Wind  
Wind Speed 6 mph (WSW)    
Max Wind Speed 12 mph    
Max Gust Speed 15 mph    
Visibility 9 miles    
Events Rain    
T = Trace of Precipitation, MM = Missing Value Source: NWS Daily Summary

Daily Weather History Graph

Daily Weather History Graph

Search for Another Location

Airport:

Trip Planner

Search our weather history database for the weather conditions in past years. The results will help you decide how hot, cold, wet, or windy it might be!

Date:

Astronomy

Aug. 10, 2013 Rise Set
Actual Time 6:35 AM EDT 8:23 PM EDT
Civil Twilight 6:07 AM EDT 8:51 PM EDT
Nautical Twilight 5:33 AM EDT 9:25 PM EDT
Astronomical Twilight 4:56 AM EDT 10:02 PM EDT
Moon 10:15 AM EDT (8/10) 10:09 PM EDT (8/10)
Length of Visible Light 14h 43m
Length of Day
13h 47m
Waxing Crescent, 14% of the Moon is Illuminated
Aug 10
Waxing Crescent
Aug 14
First Quarter
Aug 20
Full
Aug 28
Last Quarter
Sep 5
New

Hourly Weather History & Observations

Time (EDT) Temp. Heat Index Dew Point Humidity Pressure Visibility Wind Dir Wind Speed Gust Speed Precip Events Conditions
12:51 AM 70.0 °F - 68.0 °F 93% 30.05 in 9.0 mi SW 4.6 mph - 0.00 in   Overcast
1:21 AM 69.8 °F - 68.0 °F 94% 30.15 in 10.0 mi WSW 5.8 mph - N/A   Overcast
1:51 AM 70.0 °F - 68.0 °F 93% 30.04 in 10.0 mi SW 3.5 mph - 0.00 in Rain Light Rain
2:49 AM 69.8 °F - 68.0 °F 94% 30.14 in 8.0 mi SW 6.9 mph - 0.00 in   Overcast
2:51 AM 70.0 °F - 68.0 °F 93% 30.03 in 8.0 mi SW 6.9 mph - 0.00 in   Overcast
3:17 AM 69.8 °F - 66.2 °F 88% 30.14 in 10.0 mi SW 6.9 mph - N/A   Overcast
3:51 AM 69.1 °F - 66.9 °F 93% 30.03 in 10.0 mi WSW 6.9 mph - N/A   Overcast
4:07 AM 69.8 °F - 66.2 °F 88% 30.14 in 10.0 mi SW 4.6 mph - N/A   Overcast
4:49 AM 69.8 °F - 66.2 °F 88% 30.14 in 10.0 mi SW 5.8 mph - N/A   Overcast
4:51 AM 69.1 °F - 66.9 °F 93% 30.03 in 10.0 mi SW 5.8 mph - N/A   Overcast
5:07 AM 69.8 °F - 66.2 °F 88% 30.14 in 10.0 mi SW 6.9 mph - N/A   Overcast
5:26 AM 68.0 °F - 66.2 °F 94% 30.14 in 9.0 mi SW 6.9 mph - 0.00 in Rain Light Rain
5:51 AM 68.0 °F - 66.0 °F 93% 30.03 in 3.0 mi South 4.6 mph - 0.04 in Rain Heavy Rain
6:51 AM 68.0 °F - 64.9 °F 90% 30.05 in 9.0 mi WSW 5.8 mph - 0.00 in Rain Light Rain
7:08 AM 68.0 °F - 66.2 °F 94% 30.16 in 9.0 mi SW 6.9 mph - 0.01 in Rain Light Rain
7:18 AM 68.0 °F - 66.2 °F 94% 30.15 in 10.0 mi SW 4.6 mph - 0.01 in   Overcast
7:51 AM 68.0 °F - 66.0 °F 93% 30.06 in 7.0 mi WSW 10.4 mph - 0.02 in Rain Light Rain
8:18 AM 68.0 °F - 66.2 °F 94% 30.16 in 10.0 mi SW 6.9 mph - 0.05 in Rain Light Rain
8:51 AM 69.1 °F - 66.0 °F 90% 30.06 in 10.0 mi WSW 8.1 mph - 0.05 in   Mostly Cloudy
9:16 AM 69.8 °F - 66.2 °F 88% 30.17 in 10.0 mi WSW 6.9 mph - N/A   Mostly Cloudy
9:51 AM 69.1 °F - 66.0 °F 90% 30.07 in 10.0 mi WSW 8.1 mph - N/A   Overcast
10:30 AM 69.8 °F - 66.2 °F 88% 30.19 in 2.0 mi West 5.8 mph - 0.04 in Rain Rain
10:38 AM 69.8 °F - 66.2 °F 88% 30.19 in 5.0 mi WSW 4.6 mph - 0.06 in Rain Light Rain
10:51 AM 70.0 °F - 68.0 °F 93% 30.10 in 10.0 mi WSW 5.8 mph - 0.06 in   Overcast
10:59 AM 71.6 °F - 66.2 °F 83% 30.19 in 10.0 mi WSW 6.9 mph - N/A   Overcast
11:28 AM 71.6 °F - 66.2 °F 83% 30.19 in 10.0 mi WSW 5.8 mph - N/A   Mostly Cloudy
11:43 AM 73.4 °F - 68.0 °F 83% 30.20 in 10.0 mi SW 6.9 mph - N/A   Mostly Cloudy
11:51 AM 75.0 °F - 69.1 °F 82% 30.10 in 10.0 mi WSW 6.9 mph - N/A   Mostly Cloudy
12:34 PM 75.2 °F - 66.2 °F 73% 30.19 in 10.0 mi WSW 6.9 mph - N/A   Overcast
12:51 PM 75.9 °F - 66.9 °F 74% 30.09 in 10.0 mi WSW 6.9 mph - N/A   Mostly Cloudy
1:51 PM 79.0 °F - 66.0 °F 64% 30.06 in 10.0 mi West 10.4 mph - N/A   Partly Cloudy
2:51 PM 80.1 °F 82.1 °F 66.0 °F 62% 30.06 in 10.0 mi WNW 8.1 mph - N/A   Mostly Cloudy
3:51 PM 79.0 °F - 66.0 °F 64% 30.06 in 10.0 mi West 9.2 mph - N/A   Mostly Cloudy
4:51 PM 78.1 °F - 66.0 °F 66% 30.05 in 10.0 mi NW 5.8 mph - N/A   Scattered Clouds
5:51 PM 77.0 °F - 66.9 °F 71% 30.05 in 10.0 mi North 5.8 mph - N/A   Partly Cloudy
6:51 PM 77.0 °F - 66.9 °F 71% 30.05 in 10.0 mi NNW 3.5 mph - N/A   Scattered Clouds
7:51 PM 75.0 °F - 66.9 °F 76% 30.07 in 10.0 mi West 4.6 mph - N/A   Scattered Clouds
8:03 PM 75.2 °F - 66.2 °F 73% 30.17 in 10.0 mi West 3.5 mph - N/A   Mostly Cloudy
8:51 PM 73.9 °F - 66.9 °F 79% 30.07 in 10.0 mi Calm Calm - N/A   Mostly Cloudy
9:51 PM 72.0 °F - 66.9 °F 84% 30.10 in 10.0 mi Calm Calm - 0.00 in Rain Light Rain
10:51 PM 70.0 °F - 66.0 °F 87% 30.10 in 9.0 mi Calm Calm - 0.09 in Rain Light Rain
11:02 PM 69.8 °F - 66.2 °F 88% 30.19 in 1.8 mi Calm Calm - 0.01 in Rain Rain
11:36 PM 69.8 °F - 66.2 °F 88% 30.18 in 3.0 mi Calm Calm - 0.45 in Rain Heavy Rain
11:51 PM 69.1 °F - 66.9 °F 93% 30.08 in 8.0 mi East 3.5 mph - 0.46 in   Overcast